Tianmu-1 qixiang xingzou 01

operational
NORAD ID: 55135 Int'l Des: 2023-003 Owner: TIANMU Country: CN
LEOCIRCULARRETROGRADESSO

关于 Tianmu-1 qixiang xingzou 01

正在加载描述...

实时位置

正在加载3D地球...

即将过境

高度历史

Altitude vs Time

uPlot chart will show altitude changes over time

两行轨道根数

1 55135U 23003C 26063.21208073 .00033576 00000-0 58033-3 0 9993
2 55135 97.1618 139.9920 0004300 142.0038 218.1519 15.50894261175989
Epoch: Mar 4, 2026 • Age: 21 hours

当前状态

高度 415.6 km
速度 7.66 km/s
星下点 -3.77°S, 162.91°W
发射日期 Jan 9, 2023
运行时间 3.1 years
类型 other

技术详情

分类 Payload
质量 50.00 kg
干质量 50.00 kg
总质量 50.00 kg
长度 1.50 m
直径 1.00 m
跨度 1.50 m
形状 Box
制造商 TIANMU
平台类型 Tianmu
阶段状态 In Orbit
所有者/国家 TIANMU/CN

大型星座

Loading constellations...